Location: Ecklingerode
(51.5036°N, 10.3122°E)
Time: 07:36:14
(UTC+00:00)

Timation 1 Rocket - Pass Details

Date: 29 October 2020
Orbit: 896 x 911 km, 70.0° (Epoch: 01 December)

Event Time Altitude Azimuth Distance (km) Brightness Sun altitude
Rises 17:32:21 0° 328° (NNW) 3,549 7.9 -15.4°
Reaches altitude 10° 17:34:53 10° 330° (NNW) 2,606 7.1 -15.8°
Maximum altitude 17:40:54 71° 55° (NE) 963 4.3 -16.7°
Enters shadow 17:46:18 13° 139° (SE) 2,369 6.2 -17.5°
